Girdwood, AK

7:24 AM AKST on December 07, 2016 (GMT -0900)
Portage Glacier

Weather History for PATO - January, 2014

Change the Weather History Date:

Friday, January 10, 2014

  Actual Average (PAWR) Record (PAWR)
Temperature  
Mean Temperature 28 °F -  
Max Temperature 28 °F 31 °F 44 °F (2003)
Min Temperature 28 °F 22 °F -2 °F (1983)
Degree Days  
Heating Degree Days 37    
Moisture  
Dew Point 27 °F    
Average Humidity 95    
Maximum Humidity 96    
Minimum Humidity 92    
Precipitation  
Precipitation 0.00 in - - ()
Sea Level Pressure  
Sea Level Pressure 29.37 in    
Wind  
Wind Speed 5 mph (WNW)    
Max Wind Speed 10 mph    
Max Gust Speed -    
Visibility 9 miles    
Events Snow    
Averages and records for this station are not official NWS values.
T = Trace of Precipitation, MM = Missing Value Source: NWS Daily Summary

Daily Weather History Graph

Daily Weather History Graph

Search for Another Location

Airport or City:

Trip Planner

Search our weather history database for the weather conditions in past years. The results will help you decide how hot, cold, wet, or windy it might be!

Date:

Astronomy

Jan. 10, 2014 Rise Set
Actual Time 9:56 AM AKST 4:10 PM AKST
Civil Twilight 8:59 AM AKST 5:06 PM AKST
Nautical Twilight 8:03 AM AKST 6:03 PM AKST
Astronomical Twilight 7:11 AM AKST 6:55 PM AKST
Moon 12:45 PM AKST (1/10) 4:45 AM AKST (1/10)
Length of Visible Light 8h 07m
Length of Day
6h 14m
Waxing Gibbous, 76% of the Moon is Illuminated
Jan 10
Waxing Gibbous
Jan 15
Full
Jan 23
Last Quarter
Jan 30
New
Feb 6
First Quarter

Hourly Weather History & Observations

Time (AKST) Temp. Windchill Dew Point Humidity Pressure Visibility Wind Dir Wind Speed Gust Speed Precip Events Conditions
12:53 AM 28.9 °F - 28.0 °F 96% 29.39 in 10.0 mi Calm Calm - N/A   Overcast
1:53 AM 28.9 °F 25.2 °F 28.0 °F 96% 29.39 in 10.0 mi West 3.5 mph - N/A   Overcast
2:53 AM 28.9 °F 25.2 °F 28.0 °F 96% 29.40 in 10.0 mi West 3.5 mph - N/A   Overcast
3:53 AM 28.9 °F 22.8 °F 28.0 °F 96% 29.41 in 10.0 mi WNW 5.8 mph - N/A   Overcast
4:31 AM 28.9 °F 22.8 °F 28.0 °F 96% 29.40 in 10.0 mi WNW 5.8 mph - N/A   Overcast
4:46 AM 28.9 °F 22.8 °F 28.0 °F 96% 29.40 in 10.0 mi WNW 5.8 mph - N/A   Overcast
4:53 AM 28.9 °F 23.9 °F 28.0 °F 96% 29.40 in 10.0 mi Variable 4.6 mph - N/A   Overcast
5:16 AM 28.9 °F 22.8 °F 28.0 °F 96% 29.40 in 10.0 mi WNW 5.8 mph - N/A   Overcast
5:53 AM 28.9 °F 22.8 °F 28.0 °F 96% 29.40 in 10.0 mi West 5.8 mph - N/A   Overcast
6:15 AM 28.9 °F 25.2 °F 28.0 °F 96% 29.40 in 10.0 mi West 3.5 mph - N/A   Overcast
6:53 AM 28.9 °F 22.8 °F 28.0 °F 96% 29.39 in 10.0 mi WNW 5.8 mph - N/A   Overcast
7:03 AM 28.9 °F 21.9 °F 28.0 °F 96% 29.39 in 10.0 mi WNW 6.9 mph - N/A   Overcast
7:46 AM 28.9 °F 21.9 °F 28.0 °F 96% 29.39 in 10.0 mi West 6.9 mph - N/A   Overcast
7:53 AM 28.9 °F 21.1 °F 27.0 °F 92% 29.40 in 10.0 mi West 8.1 mph - N/A   Overcast
8:10 AM 28.9 °F 21.1 °F 27.0 °F 92% 29.39 in 10.0 mi West 8.1 mph - N/A   Overcast
8:53 AM 28.9 °F 22.8 °F 27.0 °F 92% 29.41 in 10.0 mi WNW 5.8 mph - N/A   Overcast
9:38 AM 28.9 °F 21.9 °F 28.0 °F 96% 29.40 in 10.0 mi WNW 6.9 mph - N/A   Overcast
9:53 AM 28.9 °F 22.8 °F 28.0 °F 96% 29.41 in 10.0 mi WNW 5.8 mph - N/A   Overcast
10:21 AM 28.9 °F 22.8 °F 28.0 °F 96% 29.41 in 10.0 mi WNW 5.8 mph - N/A   Overcast
10:32 AM 28.9 °F 22.8 °F 28.0 °F 96% 29.41 in 10.0 mi WNW 5.8 mph - N/A   Overcast
10:45 AM 28.9 °F 23.9 °F 28.0 °F 96% 29.41 in 10.0 mi WNW 4.6 mph - N/A   Overcast
10:53 AM 28.9 °F 22.8 °F 27.0 °F 92% 29.42 in 10.0 mi West 5.8 mph - N/A   Overcast
11:21 AM 28.9 °F 23.9 °F 27.0 °F 92% 29.41 in 10.0 mi West 4.6 mph - N/A   Overcast
11:32 AM 28.9 °F 23.9 °F 27.0 °F 92% 29.41 in 10.0 mi West 4.6 mph - N/A   Overcast
11:53 AM 28.9 °F 22.8 °F 27.0 °F 92% 29.42 in 10.0 mi West 5.8 mph - N/A   Overcast
12:53 PM 28.9 °F 23.9 °F 27.0 °F 92% 29.41 in 10.0 mi West 4.6 mph - N/A   Overcast
1:53 PM 28.9 °F 22.8 °F 27.0 °F 92% 29.40 in 9.0 mi West 5.8 mph - N/A   Overcast
2:53 PM 28.0 °F 24.2 °F 27.0 °F 96% 29.38 in 4.0 mi WNW 3.5 mph - 0.00 in Snow Light Snow
3:33 PM 28.0 °F 20.8 °F 26.1 °F 92% 29.37 in 6.0 mi WNW 6.9 mph - 0.00 in   Overcast
3:53 PM 28.0 °F 21.7 °F 27.0 °F 96% 29.37 in 2.5 mi WNW 5.8 mph - 0.00 in Snow Light Snow
4:07 PM 28.0 °F 21.7 °F 27.0 °F 96% 29.36 in 3.0 mi West 5.8 mph - 0.00 in Snow Light Snow
4:28 PM 28.0 °F 21.7 °F 27.0 °F 96% 29.36 in 4.0 mi West 5.8 mph - 0.00 in   Overcast
4:53 PM 28.0 °F 20.8 °F 27.0 °F 96% 29.36 in 5.0 mi WNW 6.9 mph - 0.00 in   Overcast
5:48 PM 28.4 °F 21.2 °F 26.6 °F 93% 29.35 in 2.5 mi West 6.9 mph - 0.00 in Snow Light Snow
5:53 PM 28.0 °F 20.0 °F 27.0 °F 96% 29.36 in 3.0 mi West 8.1 mph - 0.00 in Snow Light Snow
6:18 PM 28.0 °F 20.8 °F 27.0 °F 96% 29.35 in 8.0 mi West 6.9 mph - 0.00 in   Overcast
6:41 PM 28.0 °F 20.0 °F 27.0 °F 96% 29.34 in 9.0 mi West 8.1 mph - 0.00 in   Overcast
6:53 PM 28.0 °F 20.0 °F 27.0 °F 96% 29.34 in 9.0 mi West 8.1 mph - 0.00 in   Overcast
7:18 PM 28.0 °F 18.6 °F 26.1 °F 92% 29.33 in 10.0 mi West 10.4 mph - N/A   Overcast
7:44 PM 28.0 °F 20.0 °F 27.0 °F 96% 29.33 in 10.0 mi West 8.1 mph - N/A   Overcast
7:53 PM 28.0 °F 20.8 °F 27.0 °F 96% 29.33 in 10.0 mi West 6.9 mph - N/A   Overcast
8:37 PM 28.0 °F 20.0 °F 27.0 °F 96% 29.32 in 10.0 mi West 8.1 mph - N/A   Overcast
8:53 PM 28.0 °F 19.3 °F 26.1 °F 92% 29.32 in 10.0 mi West 9.2 mph - N/A   Overcast
9:53 PM 28.0 °F 18.6 °F 26.1 °F 92% 29.31 in 10.0 mi West 10.4 mph - N/A   Overcast
10:00 PM 28.0 °F 20.0 °F 26.1 °F 92% 29.30 in 10.0 mi West 8.1 mph - N/A   Overcast
10:53 PM 28.0 °F 18.6 °F 26.1 °F 92% 29.30 in 10.0 mi West 10.4 mph - N/A   Overcast
11:22 PM 28.0 °F 20.0 °F 26.1 °F 92% 29.29 in 10.0 mi West 8.1 mph - N/A   Overcast
11:53 PM 28.0 °F 19.3 °F 26.1 °F 92% 29.29 in 10.0 mi West 9.2 mph - N/A   Overcast